Location: Le Vaud
(46.4779°N, 6.2346°E)
Time: 19:04:43
(UTC+00:00)

Cosmos 2084 - Pass Details

Date: 18 February 2020
Orbit: 568 x 615 km, 62.8° (Epoch: 05 April)

Event Time Altitude Azimuth Distance (km) Brightness Sun altitude
Rises 05:26:28 0° 209° (SSW) 2,867 6.7 -12.4°
Reaches altitude 10° 05:28:45 10° 206° (SSW) 1,968 5.9 -12.0°
Maximum altitude 05:33:09 63° 126° (SE) 691 4.1 -11.3°
Drops below altitude 10° 05:37:35 10° 46° (NE) 1,976 6.7 -10.5°
Sets 05:39:52 0° 43° (NE) 2,881 7.5 -10.1°
